[Iaude] MPEC C109: 2024 CX1 [a=1.47,e=0.29,i=21.6,H=23.1]

mpec at cfa.harvard.edu mpec at cfa.harvard.edu
Sat Feb 10 09:01:36 EST 2024


M.P.E.C. 2024-C109                            Issued 2024 February 10, 13:59 UT

     The Minor Planet Electronic Circulars contain information on unusual
         minor planets, routine data on comets and natural satellites,
         and occasional editorial announcements.  They are published
    on behalf of Division F of the International Astronomical Union by the
          Minor Planet Center, Smithsonian Astrophysical Observatory,
                          Cambridge, MA 02138, U.S.A.
			  
             Prepared using the Tamkin Foundation Computer Network

                              MPC at CFA.HARVARD.EDU
            URL https://www.minorplanetcenter.net/    ISSN 1523-6714

                                    2024 CX1                                    


Observations:
     K24C01X  C2024 02 04.40919210 03 29.623+17 21 00.69         21.42GVEC109F52
     K24C01X  C2024 02 04.42147210 03 27.456+17 20 36.72         22.15GVEC109F52
     K24C01X  C2024 02 04.43381010 03 25.248+17 20 13.06         21.65GVEC109F52
     K24C01X  C2024 02 04.44613910 03 23.077+17 19 48.98         22.51GVEC109F52
     K24C01X* C2024 02 09.34236809 48 25.581+14 25 06.45         21.99wXEC109F52
     K24C01X  C2024 02 09.35399509 48 23.197+14 24 39.69         21.83wXEC109F52
     K24C01X  C2024 02 09.36562009 48 20.804+14 24 12.92         21.97wXEC109F52
     K24C01X  C2024 02 09.51836709 47 49.094+14 18 16.20         21.33GVEC109F52
     K24C01X  C2024 02 09.51922809 47 48.910+14 18 14.19         21.38GVEC109F52
     K24C01X  C2024 02 10.20531509 45 32.41 +13 51 29.2                WEC109X09
     K24C01X  C2024 02 10.22620809 45 28.01 +13 50 39.9                WEC109X09
     K24C01X  C2024 02 10.41053709 44 51.190+13 42 55.38         21.31GVEC109F52
     K24C01X  C2024 02 10.41135609 44 51.021+13 42 53.34         21.61GVEC109F52

Observer details:
F52 Pan-STARRS 2, Haleakala.  Observers J. Herman, T. Lowe, P. Minguez, A.
    Schultz, I. Smith.  Measurers K. Chambers, T. de Boer, J. Fairlamb, H.
    Gao, M. Huber, C.-C. Lin, E. Magnier, Y. Ramanjooloo, R. Wainscoat, R.
    Weryk.  1.8-m Ritchey-Chretien + CCD.
X09 Deep Random Survey, Rio Hurtado.  Observers A. Schnabel, D. Ruhela.
    Measurer S. Deen.  0.43-m reflector + CMOS.

Orbital elements:
2024 CX1                                                 Earth MOID = 0.2514 AU
Epoch 2023 Sept. 13.0 TT = JDT 2460200.5                MPC                     
M 220.43809              (2000.0)            P               Q                  
n   0.55503651     Peri.  268.79217     -0.59280346     +0.77244887             
a   1.4664086      Node   321.69969     -0.51127886     -0.57954612             
e   0.2918546      Incl.   21.56751     -0.62223628     -0.25970952             
P   1.78           H   23.13          G   0.15           U   9                  
Residuals in seconds of arc
240204 F52  0.2-  0.1+    240209 F52  0.1+  0.1+    240210 X09  0.6+  0.6+
240204 F52  0.0   0.1-    240209 F52  0.0   0.2+    240210 F52  0.0   0.0
240204 F52  0.3-  0.1+    240209 F52  0.0   0.0     240210 F52  0.0   0.0
240204 F52  0.1+  0.0     240209 F52  0.1-  0.0
240209 F52  0.0   0.0     240210 X09  0.4+  0.2-

Ephemeris:
2024 CX1                 a,e,i = 1.47, 0.29, 22                  q = 1.0384
Date    TT    R. A. (2000) Decl.     Delta      r    Elong.  Phase     V
2024 01 11    10 41 09.1 +25 53 36   0.5900  1.4640   135.5    28.1    24.1
...
2024 01 26    10 25 08.3 +21 36 45   0.4503  1.4005   152.9    18.7    23.1
...
2024 02 03    10 07 20.2 +18 05 41   0.3906  1.3661   164.6    11.0    22.5
...
2024 02 09    09 49 31.9 +14 38 25   0.3547  1.3401   174.6     4.0    21.9
2024 02 10    09 46 13.8 +13 59 24   0.3496  1.3357   176.3     2.7    21.8
2024 02 11    09 42 50.6 +13 19 06   0.3447  1.3314   177.9     1.6    21.6
...
2024 02 17    09 21 05.8 +08 51 56   0.3211  1.3054   170.1     7.5    21.8
...
2024 02 25    08 50 23.6 +02 06 29   0.3047  1.2711   154.3    19.7    22.1
...
2024 03 11    08 00 01.5 -10 21 26   0.3142  1.2088   127.0    41.0    22.6

A. U. Tomatic                (C) Copyright 2024 MPC           M.P.E.C. 2024-C109





More information about the Iaude mailing list